Location: Peebles
(55.6412°N, 3.1714°W)
Time: 07:36:44
(UTC+00:00)

FENGYUN 1C DEB - Visible Passes

Search period start: 01 December 2022 00:00
Search period end: 11 December 2022 00:00
Orbit: 836 x 981 km, 99.1° (Epoch: 30 November)

Date Brightness Start Highest point End Pass type
(mag) Time Alt. Az. Time Alt. Az. Time Alt. Az.
01 Dec ? 16:53:38 11° ENE 16:55:48 13° NE 16:58:17 10° NNE visible
01 Dec ? 18:36:52 39° NE 18:36:52 39° NE 18:41:41 10° N visible
01 Dec ? 20:20:06 37° NW 20:20:06 37° NW 20:23:48 10° NNW visible
02 Dec ? 16:58:53 12° ENE 17:00:47 14° NE 17:03:30 10° N visible
02 Dec ? 18:42:07 41° NE 18:42:07 41° NE 18:46:48 10° N visible
02 Dec ? 20:25:21 34° NW 20:25:21 34° NW 20:28:52 10° NNW visible
03 Dec ? 17:04:08 13° ENE 17:05:47 14° NE 17:08:42 10° N visible
03 Dec ? 18:47:22 42° NE 18:47:22 42° NE 18:51:55 10° N visible
03 Dec ? 20:30:36 31° NW 20:30:36 31° NW 20:33:54 10° NNW visible
04 Dec ? 07:06:14 10° ENE 07:07:32 11° E 07:08:49 10° E visible
04 Dec ? 17:09:23 14° ENE 17:10:47 15° NE 17:13:54 10° N visible
04 Dec ? 18:52:37 43° NNE 18:52:37 43° NNE 18:57:01 10° N visible
04 Dec ? 20:35:50 29° NW 20:35:50 29° NW 20:38:57 10° NNW visible
05 Dec ? 07:10:45 10° ENE 07:12:43 12° E 07:14:40 10° ESE visible
05 Dec ? 17:14:37 15° NE 17:15:47 16° NE 17:19:04 10° N visible
05 Dec ? 18:57:51 44° NNE 18:57:51 44° NNE 19:02:07 10° N visible
05 Dec ? 20:41:04 27° NW 20:41:04 27° NW 20:43:59 10° NNW visible
06 Dec ? 07:15:27 10° NE 07:17:54 13° E 07:20:19 10° ESE visible
06 Dec ? 17:19:50 16° NE 17:20:47 17° NE 17:24:15 10° N visible
06 Dec ? 19:03:04 44° NNE 19:03:04 44° NNE 19:07:13 10° NNW visible
06 Dec ? 20:46:18 25° NW 20:46:18 25° NW 20:49:01 10° NNW visible
07 Dec ? 07:20:15 10° NE 07:23:05 14° E 07:25:52 10° ESE visible
07 Dec ? 17:25:03 17° NE 17:25:47 18° NE 17:29:23 10° N visible
07 Dec ? 19:08:17 44° NNE 19:08:17 44° NNE 19:12:18 10° NNW visible
07 Dec ? 20:51:31 23° NW 20:51:31 23° NW 20:54:02 10° NNW visible
08 Dec ? 07:25:06 10° NE 07:28:15 15° E 07:31:21 10° ESE visible
08 Dec ? 17:30:16 18° NE 17:30:48 18° NE 17:34:32 10° N visible
08 Dec ? 19:13:30 44° N 19:13:30 44° N 19:17:24 10° NNW visible
08 Dec ? 20:56:43 21° NW 20:56:43 21° NW 20:59:02 10° NNW visible
09 Dec ? 07:29:58 10° NE 07:33:24 17° E 07:36:47 10° SE visible
09 Dec ? 17:35:29 19° NE 17:35:48 19° NE 17:39:41 10° N visible
09 Dec ? 19:18:42 43° N 19:18:42 43° N 19:22:29 10° NNW visible
09 Dec ? 21:01:56 20° NW 21:01:56 20° NW 21:04:01 10° NNW visible
10 Dec ? 07:34:53 10° NE 07:38:34 18° E 07:42:11 10° SE visible
10 Dec ? 17:40:40 20° NE 17:40:48 20° NE 17:44:49 10° N visible
10 Dec ? 19:23:54 42° N 19:23:54 42° N 19:27:34 10° NNW visible
10 Dec ? 21:07:08 18° NW 21:07:08 18° NW 21:09:01 10° NW visible
